Weather History for Durango, CO

Change the Weather History Date:

Friday, October 12, 2012

  Actual Average Record
Temperature  
Mean Temperature 52 °F 48 °F  
Max Temperature 63 °F 65 °F 81 °F (1989)
Min Temperature 40 °F 32 °F 23 °F (1970)
Degree Days  
Heating Degree Days 13 17  
Month to date heating degree days 142 173  
Since 1 July heating degree days 281 397  
Cooling Degree Days 0 0  
Month to date cooling degree days 0 0  
Year to date cooling degree days 477 243  
Growing Degree Days 2 (Base 50)    
Moisture  
Dew Point 40 °F    
Average Humidity 62    
Maximum Humidity 86    
Minimum Humidity 38    
Precipitation  
Precipitation 0.10 in 0.05 in 0.78 in (1986)
Month to date precipitation 0.10 0.61  
Year to date precipitation 5.81 12.49  
Sea Level Pressure  
Sea Level Pressure 30.00 in    
Wind  
Wind Speed 9 mph (West)    
Max Wind Speed 31 mph    
Max Gust Speed 38 mph    
Visibility 10 miles    
Events Rain , Thunderstorm    
T = Trace of Precipitation, MM = Missing Value Source: NWS Daily Summary

Daily Weather History Graph

Daily Weather History Graph

Search for Another Location

Airport:

Trip Planner

Search our weather history database for the weather conditions in past years. The results will help you decide how hot, cold, wet, or windy it might be!

Date:

Astronomy

Oct. 12, 2012 Rise Set
Actual Time 7:16 AM MDT 6:37 PM MDT
Civil Twilight 6:50 AM MDT 7:03 PM MDT
Nautical Twilight 6:20 AM MDT 7:33 PM MDT
Astronomical Twilight 5:50 AM MDT 8:03 PM MDT
Moon 4:06 AM MDT (10/12) 4:46 PM MDT (10/12)
Length of Visible Light 12h 13m
Length of Day
11h 20m
Waning Crescent, 10% of the Moon is Illuminated
Oct 12
Waning Crescent
Oct 15
New
Oct 21
First Quarter
Oct 29
Full
Nov 6
Last Quarter

Hourly Weather History & Observations

Time (MDT) Temp. Windchill Dew Point Humidity Pressure Visibility Wind Dir Wind Speed Gust Speed Precip Events Conditions
12:53 AM 52.0 °F - 41.0 °F 66% 29.98 in 10.0 mi ESE 4.6 mph - N/A   Mostly Cloudy
1:53 AM 50.0 °F - 41.0 °F 71% 29.98 in 10.0 mi Calm Calm - N/A   Scattered Clouds
2:53 AM 48.9 °F - 41.0 °F 74% 29.97 in 10.0 mi Calm Calm - N/A   Scattered Clouds
3:53 AM 48.0 °F - 41.0 °F 77% 29.96 in 10.0 mi Calm Calm - N/A   Mostly Cloudy
4:53 AM 48.9 °F - 41.0 °F 74% 29.94 in 10.0 mi East 4.6 mph - 0.00 in   Overcast
5:53 AM 46.9 °F - 43.0 °F 86% 29.96 in 10.0 mi North 4.6 mph - 0.00 in   Mostly Cloudy
6:41 AM 46.4 °F 42.9 °F 42.8 °F 87% 30.15 in 10.0 mi NE 6.9 mph - N/A Thunderstorm Overcast
6:53 AM 48.9 °F - 44.1 °F 83% 29.96 in 10.0 mi NNE 6.9 mph - N/A   Overcast
7:09 AM 48.2 °F - 42.8 °F 82% 30.14 in 10.0 mi NE 5.8 mph - N/A Thunderstorm Thunderstorm
7:53 AM 51.1 °F - 42.1 °F 71% 29.95 in 10.0 mi Calm Calm - 0.00 in Rain , Thunderstorm Light Rain
8:27 AM 51.8 °F - 42.8 °F 71% 30.13 in 10.0 mi ENE 6.9 mph - 0.00 in   Partly Cloudy
8:53 AM 53.1 °F - 42.1 °F 66% 29.97 in 10.0 mi ENE 3.5 mph - 0.00 in   Partly Cloudy
10:40 AM 62.6 °F - 42.8 °F 48% 30.12 in 10.0 mi East 11.5 mph - N/A Thunderstorm Partly Cloudy
10:53 AM 60.1 °F - 43.0 °F 53% 29.94 in 10.0 mi ESE 11.5 mph 17.3 mph N/A   Scattered Clouds
11:30 AM 60.8 °F - 44.6 °F 55% 30.09 in 10.0 mi South 11.5 mph 19.6 mph 0.00 in Rain , Thunderstorm Light Thunderstorms and Rain
11:53 AM 57.9 °F - 48.0 °F 70% 29.91 in 10.0 mi SSE 4.6 mph - 0.01 in Rain , Thunderstorm Light Rain
12:03 PM 60.8 °F - 46.4 °F 59% 30.07 in 10.0 mi WSW 10.4 mph - N/A   Scattered Clouds
12:26 PM 53.6 °F - 48.2 °F 82% 30.09 in 1.8 mi West 32.2 mph 48.3 mph 0.05 in Rain , Thunderstorm Thunderstorms and Rain
12:36 PM 53.6 °F - 48.2 °F 82% 30.09 in 3.0 mi SW 9.2 mph 24.2 mph 0.09 in Rain , Thunderstorm Light Thunderstorms and Rain
12:53 PM 55.0 °F - - N/A% 29.96 in 10.0 mi SW 15.0 mph 23.0 mph 0.09 in   Scattered Clouds
2:53 PM 60.1 °F - 42.1 °F 51% 29.89 in 10.0 mi SW 15.0 mph 27.6 mph N/A   Scattered Clouds
4:53 PM 57.9 °F - 35.1 °F 42% 29.88 in 10.0 mi West 24.2 mph 34.5 mph N/A   Partly Cloudy
5:53 PM 54.0 °F - 28.0 °F 37% 29.94 in 10.0 mi West 18.4 mph - N/A   Mostly Cloudy
6:53 PM 52.0 °F - 30.0 °F 43% 29.97 in 10.0 mi WNW 16.1 mph 24.2 mph N/A   Partly Cloudy
8:53 PM 45.0 °F 41.2 °F 30.0 °F 56% 30.02 in 10.0 mi West 6.9 mph - N/A   Clear
9:53 PM 44.1 °F 40.8 °F 30.9 °F 60% 30.02 in 10.0 mi WNW 5.8 mph - N/A   Clear
10:53 PM 41.0 °F 37.1 °F 30.9 °F 67% 30.02 in 10.0 mi WNW 5.8 mph - N/A   Clear
11:53 PM 42.1 °F 36.6 °F 28.9 °F 60% 30.04 in 10.0 mi West 9.2 mph - N/A   Clear